Tracking 29892 objects as of 21-Nov-2024
HD Live streaming from Space Station
objects crossing your sky now

STARLINK-4511

Track STARLINK-4511 now!
10-day predictions
STARLINK-4511 is classified as:


NORAD ID: 53527
Int'l Code: 2022-101A
Perigee: 544.3 km
Apogee: 546.7 km
Inclination: 53.2 °
Period: 95.4 minutes
Semi major axis: 6916 km
RCS: Unknown
Launch date: August 19, 2022
Source: United States (US)
Launch site: AIR FORCE EASTERN TEST RANGE (AFETR)
Your satellite tracking list
Your tracking list is empty




NASA's NSSDC Master Catalog

Two Line Element Set (TLE):
1 53527U 22101A   24325.62707400  .00019757  00000-0  12406-2 0  9994
2 53527  53.2169  42.2452 0001746  62.2214 297.8955 15.09291641124598
Source of the keplerian elements: AFSPC